Location: Buchberg
(46.9333°N, 15.8500°E)
Time: 04:26:42
(UTC+00:00)

IRAS Rocket - Pass Details

Date: 14 July 2020
Orbit: 848 x 877 km, 100.1° (Epoch: 11 August)

Event Time Altitude Azimuth Distance (km) Brightness Sun altitude
Exits shadow 00:12:01 28° 158° (SSE) 1,540 5.1 -19.7°
Maximum altitude 00:15:02 84° 73° (ENE) 860 4.2 -19.5°
Drops below altitude 10° 00:20:34 10° 345° (NNW) 2,492 7.4 -19.2°
Sets 00:22:57 0° 345° (NNW) 3,435 8.3 -19.1°
